{"data":{"norad_id":62605,"epoch":"2026-09-21T08:45:32.602752Z","epoch_age_seconds":96619,"freshness":"FRESH","line1":"1 62605U 25008U   26264.36496068  .00010351  00000+0  38498-3 0  9990","line2":"2 62605  43.0027 252.5685 0001491 273.8152  86.2529 15.27593496 95549","mean_motion":15.27593496,"eccentricity":0.0001491,"inclination_deg":43.0027,"raan_deg":252.5685,"arg_perigee_deg":273.8152,"mean_anomaly_deg":86.2529,"bstar":0.00038498,"rev_number":9554,"period_min":94.265915884732,"perigee_km":481.98568763647,"apogee_km":484.03168127957,"semimajor_km":6861.145684458,"source":"CELESTRAK","updated_at":"2026-09-22T09:00:49.633965Z"}}